Location: Étavigny
(49.1201°N, 2.9800°E)
Time: 10:05:16
(UTC+00:00)

Okean O Rocket - Pass Details

Date: 28 January 2023
Orbit: 620 x 643 km, 98.1° (Epoch: 23 March)

Event Time Altitude Azimuth Distance (km) Brightness Sun altitude
Exits shadow 18:47:19 12° 161° (SSE) 1,869 3.9 -21.1°
Maximum altitude 18:51:22 81° 73° (ENE) 646 1.4 -21.8°
Drops below altitude 10° 18:55:47 10° 348° (NNW) 2,033 4.3 -22.5°
Sets 18:58:01 0° 347° (NNW) 2,950 5.2 -22.8°
